| time (UTC) | temp F | wind direction | speed knots | gust knots | rain 1hr in | rain 24hr in | rain mn in | humidity % | barometer mb |
| 20260507201516 | 51 | 239 | 0.9 | 6.1 | 0.00 | 0.02 | 0.01 | 91 | 1002.4 |
| 20260507200018 | 50 | 223 | 1.7 | 5.2 | 0.00 | 0.02 | 0.01 | 91 | 1002.5 |
| 20260507194517 | 50 | 178 | 0.9 | 6.1 | 0.00 | 0.02 | 0.01 | 91 | 1002.7 |
| 20260507193012 | 50 | 237 | 2.6 | 7.0 | 0.00 | 0.02 | 0.01 | 91 | 1002.9 |
| 20260507191511 | 50 | 251 | 0.9 | 6.1 | 0.00 | 0.02 | 0.01 | 91 | 1002.9 |
| 20260507190011 | 50 | 190 | 0.9 | 4.3 | 0.00 | 0.02 | 0.01 | 91 | 1002.7 |
| 20260507184516 | 49 | 182 | 0.0 | 5.2 | 0.00 | 0.02 | 0.01 | 91 | 1002.7 |
| 20260507183009 | 49 | 189 | 0.9 | 5.2 | 0.00 | 0.02 | 0.01 | 91 | 1002.7 |
| 20260507181507 | 49 | 158 | 2.6 | 8.7 | 0.01 | 0.02 | 0.01 | 91 | 1002.5 |
| 20260507180006 | 48 | 132 | 1.7 | 10.4 | 0.01 | 0.02 | 0.01 | 90 | 1001.7 |
| 20260507174502 | 48 | 101 | 4.3 | 9.6 | 0.01 | 0.02 | 0.01 | 91 | 1002.0 |
| 20260507173058 | 48 | 105 | 3.5 | 7.8 | 0.01 | 0.02 | 0.01 | 90 | 1003.0 |
| 20260507171603 | 48 | 141 | 2.6 | 8.7 | 0.00 | 0.01 | 0.00 | 91 | 1004.1 |
| 20260507170057 | 49 | 134 | 2.6 | 7.0 | 0.00 | 0.01 | 0.00 | 91 | 1003.5 |
| 20260507164605 | 48 | 176 | 0.0 | 4.3 | 0.00 | 0.01 | 0.00 | 91 | 1004.0 |
| 20260507163056 | 48 | 144 | 0.9 | 7.0 | 0.00 | 0.01 | 0.00 | 91 | 1003.6 |
| 20260507161554 | 48 | 140 | 0.9 | 6.1 | 0.00 | 0.01 | 0.00 | 91 | 1003.3 |
| 20260507160051 | 49 | 156 | 2.6 | 6.1 | 0.00 | 0.01 | 0.00 | 90 | 1005.2 |
| 20260507154552 | 49 | 264 | 0.0 | 2.6 | 0.00 | 0.01 | 0.00 | 91 | 1004.4 |
| 20260507153048 | 50 | 227 | 1.7 | 7.0 | 0.00 | 0.01 | 0.00 | 91 | 1004.8 |
| 20260507151547 | 50 | 166 | 5.2 | 13.9 | 0.00 | 0.01 | 0.00 | 90 | 1005.1 |
| 20260507150046 | 50 | 248 | 3.5 | 14.8 | 0.00 | 0.01 | 0.00 | 90 | 1005.3 |
| 20260507144544 | 50 | 200 | 3.5 | 15.6 | 0.00 | 0.01 | 0.00 | 91 | 1005.2 |
| 20260507143042 | 51 | 200 | 6.1 | 13.9 | 0.00 | 0.01 | 0.00 | 91 | 1005.6 |
| 20260507141543 | 51 | 173 | 8.7 | 20.0 | 0.00 | 0.01 | 0.00 | 91 | 1005.6 |
| 20260507140040 | 50 | 173 | 5.2 | 12.2 | 0.00 | 0.01 | 0.00 | 90 | 1005.6 |
| 20260507134538 | 50 | 171 | 5.2 | 13.0 | 0.00 | 0.01 | 0.00 | 90 | 1006.1 |
| 20260507133035 | 50 | 127 | 5.2 | 12.2 | 0.00 | 0.01 | 0.00 | 90 | 1006.2 |
| 20260507131533 | 51 | 177 | 4.3 | 12.2 | 0.00 | 0.01 | 0.00 | 89 | 1006.2 |
| 20260507130039 | 51 | 92 | 4.3 | 13.9 | 0.00 | 0.01 | 0.00 | 90 | 1006.5 |
| 20260507124530 | 51 | 163 | 4.3 | 14.8 | 0.00 | 0.01 | 0.00 | 89 | 1007.0 |
| 20260507123028 | 51 | 160 | 5.2 | 13.9 | 0.00 | 0.01 | 0.00 | 90 | 1007.2 |
| 20260507121527 | 51 | 118 | 7.0 | 13.9 | 0.00 | 0.01 | 0.00 | 89 | 1007.3 |
| 20260507120026 | 51 | 356 | 6.1 | 14.8 | 0.00 | 0.01 | 0.00 | 89 | 1007.0 |
| 20260507114525 | 52 | 176 | 7.0 | 16.5 | 0.00 | 0.02 | 0.00 | 90 | 1007.2 |
| 20260507113023 | 51 | 152 | 4.3 | 18.2 | 0.00 | 0.02 | 0.00 | 89 | 1007.6 |
| 20260507111520 | 52 | 105 | 6.1 | 17.4 | 0.00 | 0.02 | 0.00 | 89 | 1007.4 |
| 20260507110018 | 52 | 179 | 8.7 | 20.9 | 0.00 | 0.02 | 0.00 | 89 | 1007.8 |
| 20260507104516 | 52 | 177 | 7.0 | 23.5 | 0.00 | 0.02 | 0.00 | 89 | 1007.5 |
| 20260507103025 | 52 | 183 | 7.0 | 19.1 | 0.00 | 0.02 | 0.00 | 88 | 1008.1 |
| 20260507101508 | 51 | 150 | 7.8 | 15.6 | 0.00 | 0.02 | 0.00 | 88 | 1007.9 |
| 20260507100006 | 51 | 161 | 6.1 | 20.0 | 0.00 | 0.02 | 0.00 | 87 | 1008.2 |
| 20260507094503 | 51 | 108 | 9.6 | 15.6 | 0.00 | 0.02 | 0.00 | 87 | 1008.3 |
| 20260507093002 | 50 | 124 | 7.0 | 14.8 | 0.00 | 0.02 | 0.00 | 89 | 1008.5 |
| 20260507091600 | 49 | 131 | 6.1 | 14.8 | 0.00 | 0.02 | 0.00 | 86 | 1008.4 |
| 20260507090057 | 48 | 133 | 6.1 | 9.6 | 0.00 | 0.02 | 0.00 | 84 | 1008.4 |
| 20260507084555 | 48 | 119 | 2.6 | 8.7 | 0.00 | 0.02 | 0.00 | 83 | 1008.6 |
| 20260507083052 | 48 | 143 | 2.6 | 9.6 | 0.00 | 0.02 | 0.00 | 82 | 1009.2 |
| 20260507081549 | 48 | 147 | 4.3 | 11.3 | 0.00 | 0.02 | 0.00 | 81 | 1009.5 |
| 20260507080046 | 49 | 124 | 5.2 | 10.4 | 0.00 | 0.02 | 0.00 | 78 | 1009.7 |
| 20260507074546 | 50 | 133 | 4.3 | 12.2 | 0.00 | 0.02 | 0.00 | 77 | 1009.8 |
| 20260507073042 | 51 | 151 | 3.5 | 9.6 | 0.00 | 0.02 | 0.00 | 77 | 1010.2 |
| 20260507071600 | 52 | 97 | 6.1 | 14.8 | 0.00 | 0.02 | 0.00 | 75 | 1010.3 |
| 20260507070040 | 52 | 107 | 4.3 | 11.3 | 0.00 | 0.02 | 0.00 | 75 | 1009.9 |
| 20260507064539 | 52 | 140 | 6.1 | 14.8 | 0.00 | 0.02 | 0.00 | 76 | 1010.4 |
| 20260507063042 | 51 | 113 | 6.1 | 13.9 | 0.00 | 0.02 | 0.00 | 78 | 1010.6 |
| 20260507061535 | 50 | 117 | 2.6 | 9.6 | 0.00 | 0.02 | 0.00 | 78 | 1011.2 |
| 20260507060036 | 50 | 170 | 4.3 | 9.6 | 0.00 | 0.02 | 0.00 | 77 | 1010.9 |
| 20260507054530 | 52 | 117 | 3.5 | 12.2 | 0.00 | 0.02 | 0.00 | 75 | 1011.1 |
| 20260507053035 | 52 | 162 | 5.2 | 11.3 | 0.00 | 0.02 | 0.00 | 75 | 1012.0 |
| 20260507051530 | 52 | 189 | 4.3 | 10.4 | 0.00 | 0.02 | 0.00 | 76 | 1012.7 |
| 20260507050027 | 52 | 158 | 4.3 | 11.3 | 0.00 | 0.02 | 0.00 | 77 | 1013.1 |
| 20260507044521 | 51 | 157 | 2.6 | 9.6 | 0.00 | 0.02 | 0.00 | 77 | 1013.1 |
| 20260507043017 | 50 | 138 | 4.3 | 8.7 | 0.00 | 0.02 | 0.00 | 77 | 1013.6 |
| 20260507041516 | 51 | 151 | 1.7 | 7.0 | 0.00 | 0.02 | 0.00 | 76 | 1013.6 |
| 20260507040015 | 52 | 102 | 4.3 | 8.7 | 0.00 | 0.02 | 0.00 | 75 | 1014.0 |
| 20260507034527 | 52 | 163 | 4.3 | 8.7 | 0.01 | 0.02 | 0.00 | 77 | 1013.9 |
| 20260507033015 | 51 | 127 | 3.5 | 7.8 | 0.01 | 0.02 | 0.00 | 77 | 1014.4 |
| 20260507031505 | 50 | 179 | 3.5 | 8.7 | 0.01 | 0.02 | 0.00 | 78 | 1014.8 |
| 20260507030002 | 50 | 162 | 1.7 | 7.0 | 0.01 | 0.02 | 0.02 | 77 | 1014.9 |
| 20260507024605 | 50 | 162 | 2.6 | 7.8 | 0.00 | 0.01 | 0.01 | 77 | 1015.2 |
| 20260507023057 | 50 | 164 | 3.5 | 9.6 | 0.00 | 0.01 | 0.01 | 77 | 1015.5 |
| 20260507021556 | 51 | 173 | 3.5 | 8.7 | 0.00 | 0.01 | 0.01 | 76 | 1015.8 |
| 20260507020055 | 51 | 139 | 3.5 | 9.6 | 0.00 | 0.01 | 0.01 | 76 | 1016.2 |
| 20260507014602 | 52 | 128 | 2.6 | 12.2 | 0.00 | 0.01 | 0.01 | 75 | 1016.3 |
| 20260507013052 | 52 | 163 | 4.3 | 9.6 | 0.00 | 0.01 | 0.01 | 75 | 1016.4 |
| 20260507011552 | 52 | 165 | 4.3 | 9.6 | 0.00 | 0.01 | 0.01 | 75 | 1016.6 |
| 20260507004601 | 53 | 152 | 3.5 | 12.2 | 0.00 | 0.01 | 0.01 | 74 | 1017.0 |
| 20260507003054 | 53 | 150 | 3.5 | 13.0 | 0.00 | 0.01 | 0.01 | 73 | 1017.0 |
| 20260507001552 | 54 | 194 | 3.5 | 8.7 | 0.00 | 0.01 | 0.01 | 73 | 1016.9 |
| 20260507000048 | 54 | 198 | 1.7 | 9.6 | 0.00 | 0.01 | 0.01 | 71 | 1016.9 |
| 20260506234548 | 55 | 194 | 4.3 | 15.6 | 0.00 | 0.01 | 0.01 | 70 | 1016.8 |
| 20260506233052 | 55 | 198 | 2.6 | 13.9 | 0.00 | 0.01 | 0.01 | 68 | 1016.7 |
| 20260506231545 | 55 | 187 | 3.5 | 10.4 | 0.00 | 0.01 | 0.01 | 68 | 1016.8 |
| 20260506230045 | 56 | 133 | 5.2 | 14.8 | 0.00 | 0.01 | 0.01 | 68 | 1016.9 |
| 20260506224544 | 57 | 159 | 4.3 | 11.3 | 0.00 | 0.02 | 0.01 | 68 | 1016.9 |
| 20260506223043 | 57 | 146 | 5.2 | 10.4 | 0.00 | 0.02 | 0.01 | 68 | 1017.0 |
| 20260506221542 | 57 | 188 | 5.2 | 12.2 | 0.00 | 0.02 | 0.01 | 68 | 1017.0 |
| 20260506220047 | 58 | 202 | 9.6 | 19.1 | 0.00 | 0.02 | 0.01 | 68 | 1017.0 |
| 20260506214549 | 58 | 167 | 6.1 | 20.9 | 0.00 | 0.02 | 0.01 | 68 | 1016.9 |
| 20260506213040 | 59 | 193 | 5.2 | 12.2 | 0.00 | 0.02 | 0.01 | 68 | 1016.9 |
| 20260506211537 | 59 | 216 | 4.3 | 17.4 | 0.00 | 0.02 | 0.01 | 68 | 1016.7 |
| 20260506210036 | 60 | 147 | 9.6 | 15.6 | 0.00 | 0.02 | 0.01 | 67 | 1016.4 |
| 20260506204542 | 61 | 221 | 8.7 | 20.0 | 0.00 | 0.02 | 0.01 | 66 | 1016.7 |
| 20260506203034 | 61 | 150 | 7.8 | 19.1 | 0.00 | 0.02 | 0.01 | 67 | 1016.7 |